Home > Weather > Bourges > Past weeks

Flag for France Past Weather in Bourges, Centre-Val de Loire, France — Yesterday and Last 2 Weeks

Now
58 °F

Overcast.


Feels Like: 58 °F
Forecast: 55 / 76 °F
Wind: 1 mph from North

Location: Bourges

Current Time: May 27, 2016 at 6:41:23 AM

Latest Report: May 27, 2016 at 6:00 AM


Visibility: 16 mi

Pressure: 29.93 "Hg

Humidity: 89%

Dew Point: 55 °F

Location of BourgesLocation

Past Weather in Bourges — Graph

°F

Bourges Temperature Yesterday

Maximum temperature yesterday: 71 °F (at 6:00 PM)
Minimum temperature yesterday: 51 °F (at 6:00 AM)
Average temperature yesterday: 62 °F

High & Low Weather Summary for the Past Weeks

 TemperatureHumidityPressure
High77 °F (May 21, 5:00 PM)97% (May 14, 6:00 AM)30.27 "Hg (May 14, 6:00 AM)
Low39 °F (May 16, 4:00 AM)36% (May 16, 5:00 PM)29.56 "Hg (May 12, 5:00 AM)
Average55 °F79%29.97 "Hg
* Reported May 12 5:00 AM — May 27 5:00 AM, Bourges, Weather by CustomWeather, © 2016

Note: Actual official high and low records may vary slightly from our data, if they occured in-between our weather recording intervals... More about our weather records

Advertising

Bourges Weather History for the Previous 24 Hours

Scroll right to see more
 ConditionsComfort  
Time TempWeatherWind HumidityBarometerVisibility
5:00 AM
Fri, May 27
58 °FPassing clouds.1 mph90%29.92 "Hg12 mi
4:00 AM58 °FOvercast.3 mph92%29.92 "Hg12 mi
3:00 AM60 °FOvercast.3 mph89%29.91 "Hg12 mi
2:00 AM61 °FOvercast.5 mph87%29.91 "Hg12 mi
1:00 AM63 °FOvercast.5 mph84%29.90 "Hg12 mi
12:00 AM63 °FOvercast.5 mph82%29.90 "Hg12 mi
11:00 PM
Thu, May 26
64 °FOvercast.3 mph80%29.91 "Hg12 mi
10:00 PM66 °FOvercast.3 mph74%29.89 "Hg12 mi
9:00 PM68 °FOvercast.2 mph67%29.89 "Hg12 mi
8:00 PM70 °FOvercast.5 mph62%29.88 "Hg12 mi
7:00 PM70 °FOvercast.5 mph62%29.88 "Hg12 mi
6:00 PM71 °FMild.5 mph61%29.88 "Hg12 mi
5:00 PM70 °FPartly sunny.2 mph59%29.89 "Hg12 mi
4:00 PM70 °FPartly sunny.2 mph63%29.91 "Hg16 mi
3:00 PM67 °FOvercast.5 mph72%29.92 "Hg12 mi
2:00 PM64 °FLight rain. Overcast.5 mph79%29.93 "Hg12 mi
1:00 PM67 °FOvercast.6 mph72%29.93 "Hg12 mi
12:00 PM67 °FScattered clouds.2 mph72%29.93 "Hg12 mi
11:00 AM61 °FOvercast.3 mph83%29.94 "Hg11 mi
10:00 AM60 °FLight rain. Overcast.2 mph84%29.95 "Hg11 mi
9:00 AM57 °FOvercast.5 mph92%29.95 "Hg12 mi
8:00 AM54 °FFog.3 mph94%29.93 "Hg7 mi
7:00 AM52 °FFog.2 mph96%29.93 "Hg4 mi
6:00 AM51 °FFog.1 mph95%29.93 "Hg0 mi
Weather by CustomWeather, © 2016

See weather overviewHow to use our weather pages